Year,Month,Day,Hour,Minute,Value (Times are PST for windspeed in km/hr)
2010,04,02,00,00,13.70
2010,04,02,00,01,10.10
2010,04,02,00,02,8.80
2010,04,02,00,03,10.80
2010,04,02,00,04,13.50
2010,04,02,00,05,7.20
2010,04,02,00,06,12.30
2010,04,02,00,07,13.70
2010,04,02,00,08,11.90
2010,04,02,00,09,10.30
2010,04,02,00,10,10.40
2010,04,02,00,11,15.30
2010,04,02,00,12,18.50
2010,04,02,00,13,12.10
2010,04,02,00,14,10.30
2010,04,02,00,15,13.20
2010,04,02,00,16,15.40
2010,04,02,00,17,9.90
2010,04,02,00,18,6.80
2010,04,02,00,19,5.40
2010,04,02,00,20,5.40
2010,04,02,00,21,7.20
2010,04,02,00,22,5.10
2010,04,02,00,23,12.30
2010,04,02,00,24,9.00
2010,04,02,00,25,8.90
2010,04,02,00,26,6.40
2010,04,02,00,27,5.20
2010,04,02,00,28,5.10
2010,04,02,00,29,10.70
2010,04,02,00,30,12.30
2010,04,02,00,31,7.40
2010,04,02,00,32,11.10
2010,04,02,00,33,7.40
2010,04,02,00,34,6.60
2010,04,02,00,35,6.40
2010,04,02,00,36,10.80
2010,04,02,00,37,5.50
2010,04,02,00,38,8.20
2010,04,02,00,39,7.20
2010,04,02,00,40,10.00
2010,04,02,00,41,8.60
2010,04,02,00,42,9.70
2010,04,02,00,43,7.80
2010,04,02,00,44,7.20
2010,04,02,00,45,9.70
2010,04,02,00,46,18.00
2010,04,02,00,47,12.30
2010,04,02,00,48,14.30
2010,04,02,00,49,17.80
2010,04,02,00,50,13.00
2010,04,02,00,51,16.70
2010,04,02,00,52,17.20
2010,04,02,00,53,15.70
2010,04,02,00,54,10.80
2010,04,02,00,55,9.70
2010,04,02,00,56,17.40
2010,04,02,00,57,13.40
2010,04,02,00,58,10.90
2010,04,02,00,59,13.90
2010,04,02,01,00,17.10
2010,04,02,01,01,15.00
2010,04,02,01,02,14.80
2010,04,02,01,03,13.90
2010,04,02,01,04,15.20
2010,04,02,01,05,17.80
2010,04,02,01,06,14.10
2010,04,02,01,07,16.30
2010,04,02,01,08,19.10
2010,04,02,01,09,17.30
2010,04,02,01,10,15.70
2010,04,02,01,11,14.90
2010,04,02,01,12,16.90
2010,04,02,01,13,13.90
2010,04,02,01,14,10.10
2010,04,02,01,15,15.70
2010,04,02,01,16,19.70
2010,04,02,01,17,18.50
2010,04,02,01,18,16.30
2010,04,02,01,19,17.30
2010,04,02,01,20,21.20
2010,04,02,01,21,19.00
2010,04,02,01,22,16.50
2010,04,02,01,23,16.00
2010,04,02,01,24,16.50
2010,04,02,01,25,15.20
2010,04,02,01,26,23.60
2010,04,02,01,27,19.50
2010,04,02,01,28,20.30
2010,04,02,01,29,13.10
2010,04,02,01,30,11.70
2010,04,02,01,31,16.90
2010,04,02,01,32,15.90
2010,04,02,01,33,14.70
2010,04,02,01,34,17.70
2010,04,02,01,35,17.70
2010,04,02,01,36,17.70
2010,04,02,01,37,17.70
2010,04,02,01,38,17.70
2010,04,02,01,39,17.70
2010,04,02,01,40,17.70
2010,04,02,01,41,17.70
2010,04,02,01,42,17.70
2010,04,02,01,43,17.70
2010,04,02,03,25,1.60
2010,04,02,03,26,3.60
2010,04,02,03,27,4.20
2010,04,02,03,28,5.20
2010,04,02,03,29,2.20
2010,04,02,03,30,1.60
2010,04,02,03,31,1.60
2010,04,02,03,32,2.70
2010,04,02,03,33,2.50
2010,04,02,03,34,1.60
2010,04,02,03,35,2.10
2010,04,02,03,36,0.50
2010,04,02,03,37,0.00
2010,04,02,03,38,0.00
2010,04,02,03,39,3.10
2010,04,02,03,40,0.40
2010,04,02,03,41,1.40
2010,04,02,03,42,0.60
2010,04,02,03,43,5.70
2010,04,02,03,44,3.30
2010,04,02,03,45,6.80
2010,04,02,03,46,6.70
2010,04,02,03,47,4.30
2010,04,02,03,48,2.30
2010,04,02,03,49,0.90
2010,04,02,03,50,0.30
2010,04,02,03,51,1.20
2010,04,02,03,52,0.00
2010,04,02,03,53,0.00
2010,04,02,03,54,0.00
2010,04,02,03,55,0.50
2010,04,02,03,56,0.00
2010,04,02,03,57,0.00
2010,04,02,03,58,0.00
2010,04,02,03,59,0.00
2010,04,02,04,00,3.40
2010,04,02,04,01,0.90
2010,04,02,04,02,2.80
2010,04,02,04,03,2.00
2010,04,02,04,04,1.50
2010,04,02,04,05,0.40
2010,04,02,04,06,0.80
2010,04,02,04,07,0.70
2010,04,02,04,08,1.50
2010,04,02,04,09,0.20
2010,04,02,04,10,0.00
2010,04,02,04,11,0.30
2010,04,02,04,12,0.10
2010,04,02,04,13,1.00
2010,04,02,04,14,0.00
2010,04,02,04,15,0.00
2010,04,02,04,16,0.10
2010,04,02,04,17,0.00
2010,04,02,04,18,0.20
2010,04,02,04,19,0.20
2010,04,02,04,20,0.30
2010,04,02,04,21,0.10
2010,04,02,04,22,1.20
2010,04,02,04,23,0.00
2010,04,02,04,24,1.50
2010,04,02,04,25,0.20
2010,04,02,04,26,0.00
2010,04,02,04,27,0.00
2010,04,02,04,28,1.00
2010,04,02,04,29,0.40
2010,04,02,04,30,0.00
2010,04,02,04,31,0.10
2010,04,02,04,32,0.30
2010,04,02,04,33,3.60
2010,04,02,04,34,8.60
2010,04,02,04,35,5.70
2010,04,02,04,36,3.90
2010,04,02,04,37,4.20
2010,04,02,04,38,4.20
2010,04,02,04,39,4.10
2010,04,02,04,40,2.00
2010,04,02,04,41,2.00
2010,04,02,04,42,3.20
2010,04,02,04,43,3.20
2010,04,02,04,44,2.10
2010,04,02,04,45,0.50
2010,04,02,04,46,4.20
2010,04,02,04,47,3.30
2010,04,02,04,48,7.20
2010,04,02,04,49,8.20
2010,04,02,04,50,13.30
2010,04,02,04,51,17.10
2010,04,02,04,52,14.80
2010,04,02,04,53,18.60
2010,04,02,04,54,16.70
2010,04,02,04,55,18.30
2010,04,02,04,56,20.40
2010,04,02,04,57,25.30
2010,04,02,04,58,21.90
2010,04,02,04,59,23.30
2010,04,02,05,00,22.00
2010,04,02,05,01,26.40
2010,04,02,05,02,24.60
2010,04,02,05,03,26.40
2010,04,02,05,04,19.60
2010,04,02,05,05,22.00
2010,04,02,05,06,18.30
2010,04,02,05,07,19.50
2010,04,02,05,08,21.50
2010,04,02,05,09,23.70
2010,04,02,05,10,24.90
2010,04,02,05,11,23.40
2010,04,02,05,12,26.20
2010,04,02,05,13,24.20
2010,04,02,05,14,27.10
2010,04,02,05,15,30.00
2010,04,02,05,16,22.40
2010,04,02,05,17,20.60
2010,04,02,05,18,24.60
2010,04,02,05,19,26.20
2010,04,02,05,20,23.00
2010,04,02,05,21,20.10
2010,04,02,05,22,27.10
2010,04,02,05,23,27.40
2010,04,02,05,24,26.60
2010,04,02,05,25,23.10
2010,04,02,05,26,25.90
2010,04,02,05,27,23.00
2010,04,02,05,28,23.40
2010,04,02,05,29,27.90
2010,04,02,05,30,28.50
2010,04,02,05,31,29.20
2010,04,02,05,32,25.00
2010,04,02,05,33,25.40
2010,04,02,05,34,27.40
2010,04,02,05,35,24.30
2010,04,02,05,36,26.50
2010,04,02,05,37,23.20
2010,04,02,05,38,20.60
2010,04,02,05,39,29.40
2010,04,02,05,40,24.50
2010,04,02,05,41,26.80
2010,04,02,05,42,23.70
2010,04,02,05,43,25.00
2010,04,02,05,44,25.30
2010,04,02,05,45,25.40
2010,04,02,05,46,25.10
2010,04,02,05,47,18.20
2010,04,02,05,48,23.00
2010,04,02,05,49,20.00
2010,04,02,05,50,17.90
2010,04,02,05,51,21.30
2010,04,02,05,52,16.10
2010,04,02,05,53,15.70
2010,04,02,05,54,22.50
2010,04,02,05,55,29.20
2010,04,02,05,56,25.50
2010,04,02,05,57,17.00
2010,04,02,05,58,15.80
2010,04,02,05,59,22.60
2010,04,02,06,00,24.40
2010,04,02,06,01,29.60
2010,04,02,06,02,26.30
2010,04,02,06,03,24.10
2010,04,02,06,04,25.30
2010,04,02,06,05,28.50
2010,04,02,06,06,27.00
2010,04,02,06,07,21.60
2010,04,02,06,08,25.80
2010,04,02,06,09,24.90
2010,04,02,06,10,27.90
2010,04,02,06,11,26.80
2010,04,02,06,12,21.60
2010,04,02,06,13,23.80
2010,04,02,06,14,27.00
2010,04,02,06,15,36.40
2010,04,02,06,16,26.00
2010,04,02,06,17,27.90
2010,04,02,06,18,28.50
2010,04,02,06,19,32.40
2010,04,02,06,20,30.30
2010,04,02,06,21,25.90
2010,04,02,06,22,28.60
2010,04,02,06,23,26.40
2010,04,02,06,24,26.70
2010,04,02,06,25,35.10
2010,04,02,06,26,31.70
2010,04,02,06,27,27.40
2010,04,02,06,28,22.40
2010,04,02,06,29,20.00
2010,04,02,06,30,30.90
2010,04,02,06,31,34.60
2010,04,02,06,32,32.60
2010,04,02,06,33,34.60
2010,04,02,06,34,36.00
2010,04,02,06,35,30.60
2010,04,02,06,36,23.90
2010,04,02,06,37,29.10
2010,04,02,06,38,30.70
2010,04,02,06,39,31.90
2010,04,02,06,40,33.70
2010,04,02,06,41,37.40
2010,04,02,06,42,39.70
2010,04,02,06,43,26.90
2010,04,02,06,44,34.80
2010,04,02,06,45,37.80
2010,04,02,06,46,34.20
2010,04,02,06,47,32.60
2010,04,02,06,48,24.10
2010,04,02,06,49,22.70
2010,04,02,06,50,25.60
2010,04,02,06,51,38.50
2010,04,02,06,52,29.30
2010,04,02,06,53,38.10
2010,04,02,06,54,38.50
2010,04,02,06,55,37.80
2010,04,02,06,56,32.30
2010,04,02,06,57,36.30
2010,04,02,06,58,34.30
2010,04,02,06,59,32.40
2010,04,02,07,00,29.50
2010,04,02,07,01,25.10
2010,04,02,07,02,28.00
2010,04,02,07,03,30.50
2010,04,02,07,04,34.10
2010,04,02,07,05,30.10
2010,04,02,07,06,29.70
2010,04,02,07,07,32.70
2010,04,02,07,08,37.10
2010,04,02,07,09,31.90
2010,04,02,07,10,30.50
2010,04,02,07,11,29.60
2010,04,02,07,12,44.10
2010,04,02,07,13,32.40
2010,04,02,07,14,29.20
2010,04,02,07,15,30.60
2010,04,02,07,16,34.50
2010,04,02,07,17,37.40
2010,04,02,07,18,30.20
2010,04,02,07,19,26.20
2010,04,02,07,20,38.90
2010,04,02,07,21,35.60
2010,04,02,07,22,31.60
2010,04,02,07,23,33.80
2010,04,02,07,24,27.90
2010,04,02,07,25,30.00
2010,04,02,07,26,34.00
2010,04,02,07,27,34.10
2010,04,02,07,28,29.70
2010,04,02,07,29,27.50
2010,04,02,07,30,34.90
2010,04,02,07,31,42.60
2010,04,02,07,32,32.60
2010,04,02,07,33,31.30
2010,04,02,07,34,38.20
2010,04,02,07,35,31.80
2010,04,02,07,36,29.40
2010,04,02,07,37,28.20
2010,04,02,07,38,25.50
2010,04,02,07,39,32.00
2010,04,02,07,40,29.60
2010,04,02,07,41,29.40
2010,04,02,07,42,35.00
2010,04,02,07,43,33.70
2010,04,02,07,44,31.30
2010,04,02,07,45,27.60
2010,04,02,07,46,22.70
2010,04,02,07,47,28.60
2010,04,02,07,48,22.80
2010,04,02,07,49,33.50
2010,04,02,07,50,27.70
2010,04,02,07,51,29.60
2010,04,02,07,52,37.60
2010,04,02,07,53,33.70
2010,04,02,07,54,30.00
2010,04,02,07,55,30.60
2010,04,02,07,56,28.10
2010,04,02,07,57,35.90
2010,04,02,07,58,30.10
2010,04,02,07,59,32.00
2010,04,02,08,00,27.40
2010,04,02,08,01,32.90
2010,04,02,08,02,29.00
2010,04,02,08,03,27.80
2010,04,02,08,04,32.90
2010,04,02,08,05,22.60
2010,04,02,08,06,29.70
2010,04,02,08,07,30.20
2010,04,02,08,08,29.50
2010,04,02,08,09,36.20
2010,04,02,08,10,25.90
2010,04,02,08,11,29.80
2010,04,02,08,12,27.40
2010,04,02,08,13,30.70
2010,04,02,08,14,38.70
2010,04,02,08,15,30.40
2010,04,02,08,16,28.90
2010,04,02,08,17,40.10
2010,04,02,08,18,31.10
2010,04,02,08,19,31.00
2010,04,02,08,20,25.70
2010,04,02,08,21,32.00
2010,04,02,08,22,30.90
2010,04,02,08,23,31.80
2010,04,02,08,24,35.60
2010,04,02,08,25,27.40
2010,04,02,08,26,24.80
2010,04,02,08,27,23.10
2010,04,02,08,28,19.20
2010,04,02,08,29,25.20
2010,04,02,08,30,26.60
2010,04,02,08,31,25.70
2010,04,02,08,32,30.70
2010,04,02,08,33,31.20
2010,04,02,08,34,22.50
2010,04,02,08,35,23.80
2010,04,02,08,36,41.10
2010,04,02,08,37,24.90
2010,04,02,08,38,24.90
2010,04,02,08,39,25.40
2010,04,02,08,40,24.20
2010,04,02,08,41,22.20
2010,04,02,08,42,27.40
2010,04,02,08,43,26.60
2010,04,02,08,44,33.70
2010,04,02,08,45,38.10
2010,04,02,08,46,30.20
2010,04,02,08,47,26.70
2010,04,02,08,48,31.30
2010,04,02,08,49,23.60
2010,04,02,08,50,30.70
2010,04,02,08,51,24.50
2010,04,02,08,52,27.00
2010,04,02,08,53,19.20
2010,04,02,08,54,23.60
2010,04,02,08,55,26.40
2010,04,02,08,56,27.40
2010,04,02,08,57,29.40
2010,04,02,08,58,31.10
2010,04,02,08,59,24.60
2010,04,02,09,00,17.20
2010,04,02,09,01,21.40
2010,04,02,09,02,20.80
2010,04,02,09,03,23.60
2010,04,02,09,04,18.60
2010,04,02,09,05,38.50
2010,04,02,09,06,35.30
2010,04,02,09,07,30.80
2010,04,02,09,08,28.80
2010,04,02,09,09,30.80
2010,04,02,09,10,29.10
2010,04,02,09,11,37.00
2010,04,02,09,12,29.30
2010,04,02,09,13,32.60
2010,04,02,09,14,27.50
2010,04,02,09,15,29.40
2010,04,02,09,16,27.70
2010,04,02,09,17,25.70
2010,04,02,09,18,24.10
2010,04,02,09,19,27.20
2010,04,02,09,20,26.10
2010,04,02,09,21,28.00
2010,04,02,09,22,33.30
2010,04,02,09,23,37.20
2010,04,02,09,24,28.50
2010,04,02,09,25,23.40
2010,04,02,09,26,29.30
2010,04,02,09,27,25.90
2010,04,02,09,28,26.30
2010,04,02,09,29,29.30
2010,04,02,09,30,28.20
2010,04,02,09,31,25.50
2010,04,02,09,32,28.80
2010,04,02,09,33,26.90
2010,04,02,09,34,28.10
2010,04,02,09,35,37.70
2010,04,02,09,36,27.20
2010,04,02,09,37,35.80
2010,04,02,09,38,29.00
2010,04,02,09,39,30.70
2010,04,02,09,40,28.90
2010,04,02,09,41,27.30
2010,04,02,09,42,17.30
2010,04,02,09,43,30.60
2010,04,02,09,44,29.20
2010,04,02,09,45,31.90
2010,04,02,09,46,36.70
2010,04,02,09,47,29.50
2010,04,02,09,48,27.40
2010,04,02,09,49,27.40
2010,04,02,09,50,27.40
2010,04,02,09,51,27.00
2010,04,02,09,52,22.70
2010,04,02,09,53,27.80
2010,04,02,09,54,31.00
2010,04,02,09,55,25.40
2010,04,02,09,56,29.10
2010,04,02,09,57,24.10
2010,04,02,09,58,22.90
2010,04,02,09,59,39.60
2010,04,02,10,00,33.50
2010,04,02,10,01,34.10
2010,04,02,10,02,29.10
2010,04,02,10,03,25.10
2010,04,02,10,04,25.80
2010,04,02,10,05,39.60
2010,04,02,10,06,30.40
2010,04,02,10,07,31.80
2010,04,02,10,08,33.00
2010,04,02,10,09,31.10
2010,04,02,10,10,37.00
2010,04,02,10,11,32.60
2010,04,02,10,12,35.50
2010,04,02,10,13,41.80
2010,04,02,10,14,37.80
2010,04,02,10,15,32.00
2010,04,02,10,16,34.30
2010,04,02,10,17,42.20
2010,04,02,10,18,28.50
2010,04,02,10,19,32.70
2010,04,02,10,20,43.70
2010,04,02,10,21,36.70
2010,04,02,10,22,33.90
2010,04,02,10,23,41.80
2010,04,02,10,24,27.60
2010,04,02,10,25,35.20
2010,04,02,10,26,31.30
2010,04,02,10,27,31.10
2010,04,02,10,28,25.50
2010,04,02,10,29,30.30
2010,04,02,10,30,32.30
2010,04,02,10,31,32.00
2010,04,02,10,32,26.30
2010,04,02,10,33,21.20
2010,04,02,10,34,36.20
2010,04,02,10,35,26.10
2010,04,02,10,36,34.20
2010,04,02,10,37,31.20
2010,04,02,10,38,29.00
2010,04,02,10,39,34.40
2010,04,02,10,40,33.70
2010,04,02,10,41,31.80
2010,04,02,10,42,30.30
2010,04,02,10,43,42.90
2010,04,02,10,44,34.80
2010,04,02,10,45,43.00
2010,04,02,10,46,36.80
2010,04,02,10,47,35.70
2010,04,02,10,48,34.80
2010,04,02,10,49,28.60
2010,04,02,10,50,24.40
2010,04,02,10,51,30.60
2010,04,02,10,52,36.10
2010,04,02,10,53,31.40
2010,04,02,10,54,29.30
2010,04,02,10,55,39.30
2010,04,02,10,56,42.00
2010,04,02,10,57,46.90
2010,04,02,10,58,33.40
2010,04,02,10,59,48.50
2010,04,02,11,00,39.70
2010,04,02,11,01,30.60
2010,04,02,11,02,34.90
2010,04,02,11,03,28.70
2010,04,02,11,04,35.40
2010,04,02,11,05,36.70
2010,04,02,11,06,29.00
2010,04,02,11,07,20.30
2010,04,02,11,08,22.20
2010,04,02,11,09,31.90
2010,04,02,11,10,31.00
2010,04,02,11,11,31.80
2010,04,02,11,12,45.90
2010,04,02,11,13,32.80
2010,04,02,11,14,23.70
2010,04,02,11,15,40.00
2010,04,02,11,16,36.90
2010,04,02,11,17,35.50
2010,04,02,11,18,40.70
2010,04,02,11,19,33.20
2010,04,02,11,20,27.40
2010,04,02,11,21,43.10
2010,04,02,11,22,36.80
2010,04,02,11,23,39.90
2010,04,02,11,24,25.90
2010,04,02,11,25,24.40
2010,04,02,11,26,36.00
2010,04,02,11,27,41.10
2010,04,02,11,28,24.60
2010,04,02,11,29,30.70
2010,04,02,11,30,31.00
2010,04,02,11,31,34.20
2010,04,02,11,32,42.30
2010,04,02,11,33,43.40
2010,04,02,11,34,35.20
2010,04,02,11,35,26.30
2010,04,02,11,36,22.40
2010,04,02,11,37,38.90
2010,04,02,11,38,36.30
2010,04,02,11,39,45.70
2010,04,02,11,40,42.30
2010,04,02,11,41,31.40
2010,04,02,11,42,31.80
2010,04,02,11,43,31.80
2010,04,02,11,44,29.50
2010,04,02,11,45,32.40
2010,04,02,11,46,45.30
2010,04,02,11,47,40.50
2010,04,02,11,48,38.50
2010,04,02,11,49,33.00
2010,04,02,11,50,27.70
2010,04,02,11,51,39.50
2010,04,02,11,52,37.60
2010,04,02,11,53,29.80
2010,04,02,11,54,37.60
2010,04,02,11,55,33.00
2010,04,02,11,56,25.50
2010,04,02,11,57,32.30
2010,04,02,11,58,30.90
2010,04,02,11,59,29.70
2010,04,02,12,00,31.30
2010,04,02,12,01,29.20
2010,04,02,12,02,37.90
2010,04,02,12,03,34.90
2010,04,02,12,04,37.60
2010,04,02,12,05,39.00
2010,04,02,12,06,33.60
2010,04,02,12,07,40.10
2010,04,02,12,08,34.00
2010,04,02,12,09,40.80
2010,04,02,12,10,39.20
2010,04,02,12,11,37.90
2010,04,02,12,12,31.50
2010,04,02,12,13,30.90
2010,04,02,12,14,35.90
2010,04,02,12,15,31.30
2010,04,02,12,16,44.20
2010,04,02,12,17,45.60
2010,04,02,12,18,30.60
2010,04,02,12,19,26.50
2010,04,02,12,20,32.10
2010,04,02,12,21,32.90
2010,04,02,12,22,29.50
2010,04,02,12,23,36.50
2010,04,02,12,24,39.80
2010,04,02,12,25,37.90
2010,04,02,12,26,37.80
2010,04,02,12,27,38.20
2010,04,02,12,28,33.10
2010,04,02,12,29,23.80
2010,04,02,12,30,21.30
2010,04,02,12,31,24.40
2010,04,02,12,32,25.30
2010,04,02,12,33,22.50
2010,04,02,12,34,26.10
2010,04,02,12,35,31.30
2010,04,02,12,36,28.50
2010,04,02,12,37,24.00
2010,04,02,12,38,21.60
2010,04,02,12,39,18.20
2010,04,02,12,40,26.40
2010,04,02,12,41,23.50
2010,04,02,12,42,35.30
2010,04,02,12,43,25.40
2010,04,02,12,44,23.30
2010,04,02,12,45,26.30
2010,04,02,12,46,33.00
2010,04,02,12,47,26.10
2010,04,02,12,48,25.40
2010,04,02,12,49,20.60
2010,04,02,12,50,23.50
2010,04,02,12,51,16.80
2010,04,02,12,52,24.10
2010,04,02,12,53,27.00
2010,04,02,12,54,24.60
2010,04,02,12,55,26.20
2010,04,02,12,56,23.40
2010,04,02,12,57,27.50
2010,04,02,12,58,23.10
2010,04,02,12,59,16.90
2010,04,02,13,00,28.60
2010,04,02,13,01,20.90
2010,04,02,13,02,20.60
2010,04,02,13,03,22.30
2010,04,02,13,04,24.90
2010,04,02,13,05,22.30
2010,04,02,13,06,27.00
2010,04,02,13,07,19.70
2010,04,02,13,08,23.10
2010,04,02,13,09,26.90
2010,04,02,13,10,22.70
2010,04,02,13,11,17.70
2010,04,02,13,12,28.10
2010,04,02,13,13,26.60
2010,04,02,13,14,17.20
2010,04,02,13,15,26.00
2010,04,02,13,16,22.10
2010,04,02,13,17,23.50
2010,04,02,13,18,20.40
2010,04,02,13,19,22.00
2010,04,02,13,20,14.70
2010,04,02,13,21,22.50
2010,04,02,13,22,17.80
2010,04,02,13,23,21.20
2010,04,02,13,24,11.30
2010,04,02,13,25,24.10
2010,04,02,13,26,25.10
2010,04,02,13,27,29.30
2010,04,02,13,28,24.40
2010,04,02,13,29,24.10
2010,04,02,13,30,15.10
2010,04,02,13,31,14.90
2010,04,02,13,32,20.60
2010,04,02,13,33,16.70
2010,04,02,13,34,14.10
2010,04,02,13,35,16.70
2010,04,02,13,36,14.20
2010,04,02,13,37,18.40
2010,04,02,13,38,21.00
2010,04,02,13,39,14.70
2010,04,02,13,40,24.10
2010,04,02,13,41,21.20
2010,04,02,13,42,17.10
2010,04,02,13,43,17.70
2010,04,02,13,44,13.20
2010,04,02,13,45,22.00
2010,04,02,13,46,14.40
2010,04,02,13,47,15.90
2010,04,02,13,48,16.30
2010,04,02,13,49,23.30
2010,04,02,13,50,25.10
2010,04,02,13,51,18.30
2010,04,02,13,52,17.10
2010,04,02,13,53,20.30
2010,04,02,13,54,22.20
2010,04,02,13,55,20.50
2010,04,02,13,56,18.10
2010,04,02,13,57,24.10
2010,04,02,13,58,23.70
2010,04,02,13,59,16.90
2010,04,02,14,00,18.80
2010,04,02,14,01,18.80
2010,04,02,14,02,12.80
2010,04,02,14,03,11.80
2010,04,02,14,04,14.70
2010,04,02,14,05,17.70
2010,04,02,14,06,18.60
2010,04,02,14,07,14.10
2010,04,02,14,08,15.80
2010,04,02,14,09,14.70
2010,04,02,14,10,21.50
2010,04,02,14,11,15.00
2010,04,02,14,12,16.00
2010,04,02,14,13,12.60
2010,04,02,14,14,15.00
2010,04,02,14,15,16.90
2010,04,02,14,16,12.60
2010,04,02,14,17,11.70
2010,04,02,14,18,17.30
2010,04,02,14,19,17.60
2010,04,02,14,20,16.90
2010,04,02,14,21,14.10
2010,04,02,14,22,19.50
2010,04,02,14,23,19.10
2010,04,02,14,24,18.00
2010,04,02,14,25,13.50
2010,04,02,14,26,17.40
2010,04,02,14,27,10.80
2010,04,02,14,28,11.90
2010,04,02,14,29,13.00
2010,04,02,14,30,12.00
2010,04,02,14,31,11.50
2010,04,02,14,32,13.90
2010,04,02,14,33,12.60
2010,04,02,14,34,9.90
2010,04,02,14,35,14.30
2010,04,02,14,36,17.80
2010,04,02,14,37,15.20
2010,04,02,14,38,14.30
2010,04,02,14,39,15.30
2010,04,02,14,40,12.90
2010,04,02,14,41,12.00
2010,04,02,14,42,12.30
2010,04,02,14,43,14.50
2010,04,02,14,44,14.50
2010,04,02,14,45,14.10
2010,04,02,14,46,14.20
2010,04,02,14,47,11.90
2010,04,02,14,48,12.90
2010,04,02,14,49,9.90
2010,04,02,14,50,12.50
2010,04,02,14,51,14.10
2010,04,02,14,52,16.10
2010,04,02,14,53,15.00
2010,04,02,14,54,9.00
2010,04,02,14,55,12.20
2010,04,02,14,56,16.70
2010,04,02,14,57,20.60
2010,04,02,14,58,8.70
2010,04,02,14,59,9.40
2010,04,02,15,00,12.50
2010,04,02,15,01,14.10
2010,04,02,15,02,18.10
2010,04,02,15,03,17.10
2010,04,02,15,04,17.00
2010,04,02,15,05,7.70
2010,04,02,15,06,11.70
2010,04,02,15,07,13.80
2010,04,02,15,08,10.10
2010,04,02,15,09,14.80
2010,04,02,15,10,10.60
2010,04,02,15,11,12.10
2010,04,02,15,12,20.40
2010,04,02,15,13,15.80
2010,04,02,15,14,21.90
2010,04,02,15,15,10.90
2010,04,02,15,16,8.50
2010,04,02,15,17,8.90
2010,04,02,15,18,10.30
2010,04,02,15,19,8.70
2010,04,02,15,20,12.80
2010,04,02,15,21,12.70
2010,04,02,15,22,20.20
2010,04,02,15,23,19.20
2010,04,02,15,24,20.20
2010,04,02,15,25,11.90
2010,04,02,15,26,20.10
2010,04,02,15,27,13.70
2010,04,02,15,28,17.80
2010,04,02,15,29,16.80
2010,04,02,15,30,18.70
2010,04,02,15,31,15.60
2010,04,02,15,32,13.00
2010,04,02,15,33,16.00
2010,04,02,15,34,10.60
2010,04,02,15,35,18.10
2010,04,02,15,36,11.70
2010,04,02,15,37,15.70
2010,04,02,15,38,20.50
2010,04,02,15,39,9.80
2010,04,02,15,40,23.30
2010,04,02,15,41,12.00
2010,04,02,15,42,13.00
2010,04,02,15,43,10.70
2010,04,02,15,44,15.20
2010,04,02,15,45,21.40
2010,04,02,15,46,19.60
2010,04,02,15,47,7.70
2010,04,02,15,48,7.10
2010,04,02,15,49,11.90
2010,04,02,15,50,12.00
2010,04,02,15,51,19.70
2010,04,02,15,52,11.90
2010,04,02,15,53,10.10
2010,04,02,15,54,7.20
2010,04,02,15,55,8.90
2010,04,02,15,56,7.90
2010,04,02,15,57,12.00
2010,04,02,15,58,9.20
2010,04,02,15,59,8.20
2010,04,02,16,00,11.70
2010,04,02,16,01,9.70
2010,04,02,16,02,8.80
2010,04,02,16,03,10.90
2010,04,02,16,04,13.60
2010,04,02,16,05,9.70
2010,04,02,16,06,7.90
2010,04,02,16,07,10.60
2010,04,02,16,08,8.40
2010,04,02,16,09,8.50
2010,04,02,16,10,10.60
2010,04,02,16,11,10.70
2010,04,02,16,12,7.60
2010,04,02,16,13,10.80
2010,04,02,16,14,9.80
2010,04,02,16,15,11.10
2010,04,02,16,16,12.70
2010,04,02,16,17,12.70
2010,04,02,16,18,12.20
2010,04,02,16,19,7.20
2010,04,02,16,20,7.40
2010,04,02,16,21,8.10
2010,04,02,16,22,13.70
2010,04,02,16,23,11.30
2010,04,02,16,24,20.90
2010,04,02,16,25,9.50
2010,04,02,16,26,9.00
2010,04,02,16,27,9.00
2010,04,02,16,28,7.70
2010,04,02,16,29,6.30
2010,04,02,16,30,7.90
2010,04,02,16,31,9.90
2010,04,02,16,32,10.80
2010,04,02,16,33,16.00
2010,04,02,16,34,14.10
2010,04,02,16,35,10.40
2010,04,02,16,36,12.10
2010,04,02,16,37,13.20
2010,04,02,16,38,13.60
2010,04,02,16,39,12.60
2010,04,02,16,40,9.80
2010,04,02,16,41,10.50
2010,04,02,16,42,12.00
2010,04,02,16,43,9.40
2010,04,02,16,44,4.80
2010,04,02,16,45,4.80
2010,04,02,16,46,8.60
2010,04,02,16,47,7.70
2010,04,02,16,48,12.30
2010,04,02,16,49,21.20
2010,04,02,16,50,13.10
2010,04,02,16,51,13.60
2010,04,02,16,52,12.00
2010,04,02,16,53,10.90
2010,04,02,16,54,11.50
2010,04,02,16,55,9.60
2010,04,02,16,56,15.30
2010,04,02,16,57,12.30
2010,04,02,16,58,8.60
2010,04,02,16,59,7.20
2010,04,02,17,00,8.70
2010,04,02,17,01,15.80
2010,04,02,17,02,11.90
2010,04,02,17,03,16.80
2010,04,02,17,04,14.60
2010,04,02,17,05,15.30
2010,04,02,17,06,12.80
2010,04,02,17,07,8.90
2010,04,02,17,08,18.70
2010,04,02,17,09,11.40
2010,04,02,17,10,14.30
2010,04,02,17,11,18.80
2010,04,02,17,12,19.50
2010,04,02,17,13,13.40
2010,04,02,17,14,11.50
2010,04,02,17,15,13.00
2010,04,02,17,16,11.20
2010,04,02,17,17,19.10
2010,04,02,17,18,16.20
2010,04,02,17,19,13.20
2010,04,02,17,20,14.50
2010,04,02,17,21,23.50
2010,04,02,17,22,24.90
2010,04,02,17,23,18.40
2010,04,02,17,24,17.40
2010,04,02,17,25,20.70
2010,04,02,17,26,18.30
2010,04,02,17,27,16.10
2010,04,02,17,28,22.80
2010,04,02,17,29,15.40
2010,04,02,17,30,16.60
2010,04,02,17,31,19.10
2010,04,02,17,32,14.80
2010,04,02,17,33,27.10
2010,04,02,17,34,25.20
2010,04,02,17,35,25.50
2010,04,02,17,36,22.40
2010,04,02,17,37,21.30
2010,04,02,17,38,24.10
2010,04,02,17,39,23.40
2010,04,02,17,40,26.30
2010,04,02,17,41,30.20
2010,04,02,17,42,29.40
2010,04,02,17,43,32.10
2010,04,02,17,44,30.40
2010,04,02,17,45,17.60
2010,04,02,17,46,20.00
2010,04,02,17,47,20.50
2010,04,02,17,48,24.60
2010,04,02,17,49,23.20
2010,04,02,17,50,28.80
2010,04,02,17,51,24.00
2010,04,02,17,52,18.10
2010,04,02,17,53,24.50
2010,04,02,17,54,20.80
2010,04,02,17,55,19.80
2010,04,02,17,56,20.80
2010,04,02,17,57,16.90
2010,04,02,17,58,16.20
2010,04,02,17,59,17.30
2010,04,02,18,00,20.30
2010,04,02,18,01,23.60
2010,04,02,18,02,27.60
2010,04,02,18,03,26.50
2010,04,02,18,04,24.60
2010,04,02,18,05,24.30
2010,04,02,18,06,23.90
2010,04,02,18,07,29.30
2010,04,02,18,08,25.10
2010,04,02,18,09,32.30
2010,04,02,18,10,31.10
2010,04,02,18,11,23.40
2010,04,02,18,12,33.20
2010,04,02,18,13,15.60
2010,04,02,18,14,11.50
2010,04,02,18,15,15.30
2010,04,02,18,16,15.90
2010,04,02,18,17,13.20
2010,04,02,18,18,25.80
2010,04,02,18,19,26.60
2010,04,02,18,20,25.50
2010,04,02,18,21,26.10
2010,04,02,18,22,20.10
2010,04,02,18,23,24.80
2010,04,02,18,24,25.10
2010,04,02,18,25,25.10
2010,04,02,18,26,11.80
2010,04,02,18,27,19.60
2010,04,02,18,28,25.80
2010,04,02,18,29,24.50
2010,04,02,18,30,29.20
2010,04,02,18,31,17.80
2010,04,02,18,32,20.40
2010,04,02,18,33,18.30
2010,04,02,18,34,26.80
2010,04,02,18,35,32.60
2010,04,02,18,36,30.60
2010,04,02,18,37,30.60
2010,04,02,18,38,30.60
2010,04,02,18,39,30.60
2010,04,02,18,40,17.90
2010,04,02,18,41,19.40
2010,04,02,18,42,28.50
2010,04,02,18,43,24.90
2010,04,02,18,44,21.30
2010,04,02,18,45,27.50
2010,04,02,18,46,24.20
2010,04,02,18,47,33.20
2010,04,02,18,48,30.60
2010,04,02,18,49,40.00
2010,04,02,18,50,36.20
2010,04,02,18,51,34.20
2010,04,02,18,52,38.30
2010,04,02,18,53,28.60
2010,04,02,18,54,36.20
2010,04,02,18,55,32.10
2010,04,02,18,56,24.30
2010,04,02,18,57,28.90
2010,04,02,18,58,29.40
2010,04,02,18,59,33.60
2010,04,02,19,00,37.50
2010,04,02,19,01,33.30
2010,04,02,19,02,35.30
2010,04,02,19,03,28.00
2010,04,02,19,04,31.70
2010,04,02,19,05,31.70
2010,04,02,19,06,27.40
2010,04,02,19,07,23.60